Location: Ida Center
(41.8662°N, 83.5713°W)
Time: 20:55:46
(UTC+00:00)

BREEZE-M R/B - Pass Details

Date: 17 November 2019
Orbit: 309 x 4550 km, 49.7° (Epoch: 05 December)

Event Time Altitude Azimuth Distance (km) Brightness Sun altitude
Rises 23:47:30 0° 208° (SSW) 4,100 7.8 -17.7°
Reaches altitude 10° 23:51:37 10° 195° (SSW) 2,469 6.4 -18.5°
Maximum altitude 23:55:33 21° 146° (SSE) 1,310 4.5 -19.2°
Enters shadow 23:55:36 21° 145° (SE) 1,304 4.5 -19.2°
